Weather History for KGLD - February, 2014

Change the Weather History Date:

Tuesday, February 18, 2014

  Actual Average Record
Temperature  
Mean Temperature 46 °F 33 °F  
Max Temperature 63 °F 46 °F 74 °F (1986)
Min Temperature 29 °F 20 °F -4 °F (2006)
Degree Days  
Heating Degree Days 19 32  
Month to date heating degree days 762 610  
Since 1 July heating degree days 4205 4113  
Cooling Degree Days 0 0  
Month to date cooling degree days 0 0  
Year to date cooling degree days 0 0  
Moisture  
Dew Point 21 °F    
Average Humidity 45    
Maximum Humidity 72    
Minimum Humidity 17    
Precipitation  
Precipitation 0.00 in 0.01 in 0.76 in (1971)
Month to date precipitation 0.22 0.28  
Year to date precipitation 0.79 0.66  
Snow  
Snow 0.00 in 0.10 in - ()
Month to date snowfall 5.8 3.7  
Since 1 July snowfall 22.2 22.3  
Snow Depth 0.00 in    
Sea Level Pressure  
Sea Level Pressure 29.88 in    
Wind  
Wind Speed 13 mph (WNW)    
Max Wind Speed 40 mph    
Max Gust Speed 47 mph    
Visibility 10 miles    
Events      
T = Trace of Precipitation, MM = Missing Value Source: NWS Daily Summary

Daily Weather History Graph

Daily Weather History Graph

Search for Another Location

Airport or City:

Trip Planner

Search our weather history database for the weather conditions in past years. The results will help you decide how hot, cold, wet, or windy it might be!

Date:

Astronomy

Feb. 18, 2014 Rise Set
Actual Time 6:34 AM MST 5:27 PM MST
Civil Twilight 6:07 AM MST 5:54 PM MST
Nautical Twilight 5:36 AM MST 6:25 PM MST
Astronomical Twilight 5:05 AM MST 6:56 PM MST
Moon 9:20 PM MST (2/18) 8:09 AM MST (2/18)
Length of Visible Light 11h 47m
Length of Day
10h 52m
Waning Gibbous, 87% of the Moon is Illuminated
Feb 18
Waning Gibbous
Feb 22
Last Quarter
Mar 1
New
Mar 8
First Quarter
Mar 16
Full

Hourly Weather History & Observations

Time (MST) Temp. Windchill Dew Point Humidity Pressure Visibility Wind Dir Wind Speed Gust Speed Precip Events Conditions
12:53 AM 44.1 °F 36.5 °F 19.9 °F 38% 29.73 in 10.0 mi SW 17.3 mph - N/A   Clear
1:53 AM 35.1 °F 27.9 °F 21.9 °F 59% 29.73 in 10.0 mi West 9.2 mph - N/A   Clear
2:53 AM 35.1 °F 25.9 °F 24.1 °F 64% 29.72 in 10.0 mi West 13.8 mph - N/A   Clear
3:53 AM 36.0 °F 27.5 °F 23.0 °F 59% 29.72 in 10.0 mi West 12.7 mph - N/A   Clear
4:53 AM 32.0 °F 23.6 °F 21.9 °F 66% 29.74 in 10.0 mi WSW 10.4 mph - N/A   Clear
5:53 AM 30.9 °F 22.2 °F 21.0 °F 67% 29.77 in 10.0 mi WSW 10.4 mph - N/A   Clear
6:53 AM 30.9 °F 22.2 °F 19.9 °F 64% 29.79 in 10.0 mi WSW 10.4 mph - N/A   Clear
7:53 AM 39.9 °F 33.9 °F 21.0 °F 47% 29.78 in 10.0 mi WSW 9.2 mph - N/A   Clear
8:53 AM 51.1 °F - 23.0 °F 33% 29.78 in 10.0 mi West 4.6 mph - N/A   Clear
9:53 AM 60.1 °F - 18.0 °F 20% 29.79 in 10.0 mi West 13.8 mph - N/A   Clear
10:42 AM 61.0 °F - 18.0 °F 19% 29.87 in 10.0 mi North 19.6 mph 25.3 mph N/A   Clear
10:53 AM 62.1 °F - 18.0 °F 18% 29.83 in 10.0 mi NNW 19.6 mph - N/A   Clear
11:53 AM 62.1 °F - 18.0 °F 18% 29.84 in 10.0 mi NNW 27.6 mph 39.1 mph N/A   Clear
12:53 PM 60.1 °F - 16.0 °F 18% 29.85 in 10.0 mi North 32.2 mph 43.7 mph N/A   Clear
1:53 PM 59.0 °F - 18.0 °F 20% 29.88 in 10.0 mi NNW 28.8 mph 36.8 mph N/A   Clear
2:53 PM 55.9 °F - 21.0 °F 26% 29.92 in 10.0 mi North 28.8 mph 33.4 mph N/A   Clear
3:53 PM 53.1 °F - 23.0 °F 31% 29.96 in 10.0 mi North 19.6 mph 28.8 mph N/A   Clear
4:53 PM 50.0 °F - 23.0 °F 35% 29.99 in 10.0 mi North 11.5 mph - N/A   Clear
5:53 PM 37.9 °F 35.5 °F 21.9 °F 53% 30.06 in 10.0 mi WSW 3.5 mph - N/A   Clear
6:53 PM 32.0 °F 24.2 °F 21.9 °F 66% 30.09 in 10.0 mi North 9.2 mph - N/A   Clear
7:53 PM 30.9 °F 24.3 °F 21.0 °F 67% 30.06 in 10.0 mi NNE 6.9 mph - N/A   Clear
8:53 PM 33.1 °F - 21.0 °F 61% 30.06 in 10.0 mi Calm Calm - N/A   Clear
9:53 PM 30.9 °F - 21.0 °F 67% 30.03 in 10.0 mi Calm Calm - N/A   Clear
10:53 PM 30.9 °F - 23.0 °F 72% 30.00 in 10.0 mi Calm Calm - N/A   Clear
11:53 PM 33.1 °F 28.7 °F 25.0 °F 72% 29.99 in 10.0 mi South 4.6 mph - N/A   Clear